Location: Centerville
(32.8776°N, 96.6203°W)
Time: 04:19:02
(UTC+00:00)

X-37B - Pass Details

Date: 17 June 2021
Orbit: 383 x 392 km, 45.0° (Epoch: 01 July)

Event Time Altitude Azimuth Distance (km) Brightness Sun altitude
Exits shadow 07:53:22 11° 6° (N) 1,365 4.2 -30.1°
Drops below altitude 10° 07:53:36 10° 10° (N) 1,397 4.3 -30.1°
Sets 07:56:49 0° 46° (NE) 2,261 5.5 -29.8°
